Vorticity
nan nan nan nan nan nan nan nan nan nan nan nan nan nan nan nan nan nan nan nan nan nan nan nan nan nan nan nan nan nan nan nan nan nan nan nan nan nan nan nan nan nan nan nan nan nan nan nan nan nan nan nan nan nan nan nan nan nan nan nan nan nan nan nan nan nan nan nan nan
nan 11 11 11 10 9 9 8 8 8 9 10 11 10 10 8 9 9 9 8 8 8 8 8 8 8 8 8 9 9 9 8 8 8 8 9 9 9 9 9 9 9 8 9 9 9 10 9 8 7 8 9 9 9 10 9 9 8 8 9 10 9 8 8 9 10 10 10 nan
nan 8 9 9 10 10 9 8 8 8 8 9 10 10 9 9 9 9 10 9 8 8 8 8 8 8 8 10 10 10 9 8 7 8 8 8 9 9 9 9 9 9 9 10 9 9 9 8 7 6 8 9 9 9 10 10 9 8 9 10 10 8 7 8 9 10 9 9 nan
nan 8 8 9 10 10 9 9 9 8 8 8 9 9 9 9 9 9 9 9 9 9 9 8 8 9 9 10 9 9 8 8 7 8 8 8 9 10 10 9 8 9 10 10 9 9 9 8 7 7 8 9 9 9 9 9 9 9 9 9 8 7 7 8 9 9 9 9 nan
nan 9 10 9 9 8 8 9 10 9 8 8 9 9 9 9 9 9 9 8 9 9 9 9 9 9 9 9 9 8 8 8 8 9 8 8 9 10 10 8 8 9 10 9 9 9 9 9 8 8 9 10 9 9 9 9 8 8 8 8 8 8 8 9 9 9 9 9 nan
nan 9 10 11 9 8 8 10 10 9 9 9 9 9 10 10 9 9 8 8 9 9 9 9 9 9 9 8 8 8 8 9 9 9 8 8 9 9 9 8 9 9 9 9 10 10 10 9 8 8 8 9 9 10 10 10 7 7 6 7 8 9 9 9 9 9 8 7 nan
nan 9 9 9 8 8 9 10 9 9 9 9 9 9 9 9 9 8 8 8 9 9 10 10 9 9 8 8 7 8 8 9 9 8 8 8 8 8 8 9 9 9 9 9 10 10 10 9 7 7 8 9 10 10 10 8 6 6 6 6 9 9 9 9 9 8 7 7 nan
nan 9 9 9 8 9 9 9 9 9 9 10 9 8 8 9 8 8 8 9 9 10 10 9 9 8 8 7 7 7 8 8 8 9 8 8 7 8 9 9 9 9 10 10 10 9 10 9 8 8 8 9 9 8 8 7 6 6 6 8 9 9 9 9 8 8 7 8 nan
nan 9 9 9 10 10 10 9 9 9 9 10 9 8 8 8 8 8 8 9 9 10 10 9 9 8 7 7 7 8 8 8 8 8 8 7 7 8 9 9 8 9 10 10 10 10 10 9 8 8 8 8 7 7 6 7 7 7 8 10 9 8 7 8 7 7 8 9 nan
nan 7 7 9 9 10 9 9 9 9 9 9 8 8 8 8 9 8 8 8 9 9 9 9 8 8 7 7 8 8 8 8 8 8 8 7 7 8 9 8 8 8 9 9 10 10 10 9 7 7 7 7 7 7 8 8 7 8 8 8 7 7 7 7 7 8 9 10 nan
nan 7 8 8 8 7 7 8 8 9 9 8 8 8 8 8 9 9 8 8 8 8 9 10 8 7 7 7 8 8 9 8 8 7 7 7 8 8 9 8 8 8 8 9 10 10 10 8 6 7 8 7 8 8 9 8 8 8 8 7 6 7 8 8 8 9 10 10 nan
nan 7 8 8 8 7 7 8 8 8 8 8 9 9 9 9 9 9 8 7 7 8 10 10 8 7 7 8 8 8 8 8 8 7 7 8 8 9 9 9 9 9 9 10 11 9 8 6 6 7 7 7 8 8 8 8 8 8 8 7 7 7 8 7 8 9 10 9 nan
nan 7 8 8 8 8 7 8 8 8 8 8 8 9 9 9 9 9 8 6 6 8 10 9 8 7 7 8 8 8 8 8 8 8 8 8 9 9 9 9 9 10 10 11 10 8 7 7 7 7 7 8 8 7 7 8 8 8 8 7 7 7 7 7 9 9 8 7 nan
nan 8 8 8 8 8 8 8 8 8 7 8 8 9 9 10 10 9 8 6 7 8 9 9 8 8 8 8 8 8 8 9 8 8 8 8 9 9 9 9 9 9 10 10 10 8 8 7 8 8 8 8 7 7 8 9 9 9 8 8 8 7 7 8 9 9 7 7 nan
nan 8 8 8 8 9 9 8 8 7 7 8 9 9 9 10 10 9 8 7 8 9 8 7 8 8 9 9 8 9 9 9 9 8 8 8 9 9 9 8 8 9 9 9 9 8 8 8 9 9 8 8 8 8 8 9 9 9 9 8 8 8 8 8 9 9 8 8 nan
nan 8 8 9 9 9 9 8 7 7 7 8 9 9 9 9 9 8 8 8 9 8 7 6 8 8 9 8 9 10 10 9 9 8 8 8 8 8 8 8 8 9 9 9 8 8 8 9 9 9 9 9 9 9 8 9 9 9 9 9 9 9 8 8 9 9 9 9 nan
nan 7 8 9 10 9 8 7 7 8 7 8 8 9 9 9 8 8 8 8 8 7 7 7 8 8 8 8 9 9 9 9 8 8 8 8 8 8 8 8 9 10 10 9 8 7 7 8 8 9 10 10 9 9 9 9 9 9 9 9 9 9 9 9 9 10 10 9 nan
nan 7 8 9 9 8 8 8 7 8 8 8 8 9 8 8 8 8 8 8 8 7 7 8 8 8 7 8 8 9 8 8 8 8 8 8 9 9 9 9 10 10 11 10 8 8 7 8 8 9 9 10 10 10 10 10 9 9 9 10 10 10 10 10 10 10 10 9 nan
nan 7 8 8 8 8 7 8 8 8 9 9 8 8 8 8 8 7 7 8 9 8 8 8 8 7 7 8 8 8 8 9 9 9 9 9 10 9 9 9 10 10 10 9 9 8 8 8 8 8 8 8 8 9 9 9 9 10 10 11 11 11 10 11 11 10 9 9 nan
nan 7 7 8 8 8 8 8 8 9 9 8 8 7 8 8 7 7 7 8 9 9 9 8 7 7 6 7 7 8 9 10 10 10 10 10 9 9 9 10 10 11 10 9 9 9 8 9 9 8 8 8 8 8 9 9 10 10 10 11 11 11 11 11 11 10 10 10 nan
nan 7 8 9 9 9 9 9 9 9 8 8 8 8 8 8 7 8 8 9 9 8 7 7 7 7 7 7 8 9 9 10 10 10 10 10 10 10 10 11 11 10 9 8 9 9 9 9 9 9 9 9 9 9 9 9 10 10 10 10 10 11 11 11 11 11 10 10 nan
nan 9 10 10 10 9 9 9 9 8 8 8 8 8 8 8 8 9 10 10 8 7 7 8 9 9 9 9 9 9 9 8 9 10 10 10 10 11 12 12 10 9 8 8 9 10 10 10 10 10 10 11 11 10 10 9 9 10 10 9 9 10 12 12 11 11 11 11 nan
nan 10 11 10 10 10 9 9 8 8 7 8 8 8 8 8 9 9 9 8 7 7 8 10 11 11 11 11 10 9 8 7 8 9 10 10 10 10 11 10 9 8 9 10 10 9 9 11 13 13 13 12 12 12 11 10 10 9 9 9 10 11 12 12 11 10 10 10 nan
nan 10 9 10 10 10 9 8 7 7 7 8 8 8 8 8 9 9 8 7 7 8 8 9 10 11 12 12 11 11 9 8 8 9 10 10 9 9 10 9 10 10 11 9 2 -2 -1 5 11 13 14 13 13 12 12 12 10 9 9 10 10 10 11 11 10 9 9 9 nan
nan 9 9 9 9 9 8 7 7 7 8 8 8 8 8 9 9 9 8 7 8 9 9 9 9 10 11 13 13 13 13 11 9 9 8 9 9 9 10 10 11 12 11 2 -9 -10 -5 1 6 9 11 12 12 12 12 12 11 10 10 10 9 9 9 10 10 10 10 10 nan
nan 9 9 9 8 8 8 8 8 8 8 8 8 8 9 10 10 9 8 7 9 10 11 11 11 10 11 13 12 12 12 12 11 9 8 7 8 9 9 9 10 10 7 -5 -9 -5 -1 3 6 9 12 13 11 11 12 13 13 12 11 11 10 9 9 9 9 10 10 11 nan
nan 9 9 9 8 8 8 9 8 8 8 8 8 9 10 10 9 9 9 9 10 11 12 12 12 13 14 13 11 10 9 9 10 10 9 8 8 8 8 8 10 7 -0 -9 -7 -1 4 7 9 10 14 13 12 13 12 11 12 13 13 12 11 10 9 9 10 11 11 10 nan
nan 8 8 8 8 8 9 9 8 8 7 8 9 10 10 10 9 8 9 10 10 10 11 12 13 14 15 12 11 10 8 8 10 11 11 11 9 9 7 8 7 2 -6 -10 -4 2 6 9 10 11 12 14 18 15 13 12 12 13 14 13 12 11 11 11 11 11 9 9 nan
nan 8 8 7 7 7 8 8 8 9 9 10 10 10 9 8 8 8 8 9 9 10 10 12 13 12 10 8 9 10 10 10 10 10 10 9 10 9 8 7 6 1 -5 -4 1 5 8 9 10 10 10 15 19 16 14 13 12 12 12 12 10 9 9 9 9 8 7 9 nan
nan 8 8 7 7 7 8 8 9 10 11 11 10 9 8 7 7 8 10 11 11 11 11 11 10 8 7 7 8 9 10 10 10 9 7 7 6 6 7 9 7 3 -1 -1 3 5 7 9 9 9 9 14 20 19 16 12 11 11 11 10 8 7 7 8 9 8 8 10 nan
nan 8 8 7 7 7 8 8 10 10 10 9 8 8 7 8 9 11 13 14 14 13 11 10 8 8 8 9 9 9 9 9 9 8 7 6 6 8 9 9 8 5 -1 -1 2 5 7 8 9 9 9 15 23 22 16 11 10 10 9 7 6 6 8 11 11 10 10 10 nan
nan 8 7 7 7 8 9 9 9 10 9 8 8 8 9 9 11 12 12 12 12 12 11 9 9 9 10 10 9 8 8 8 7 7 7 7 9 10 9 10 10 5 -1 -3 1 5 7 9 9 9 9 16 24 23 17 12 11 10 9 8 7 8 10 11 11 11 11 11 nan
nan 8 7 7 7 8 9 9 10 9 9 9 9 9 10 11 10 10 10 10 11 11 11 10 10 10 10 9 8 8 8 7 7 8 9 10 10 9 8 11 10 3 -4 -3 2 5 8 9 10 10 9 18 28 25 18 13 11 10 9 9 9 11 12 12 10 10 10 10 nan
nan 8 8 8 8 8 8 9 9 9 8 9 9 9 9 10 9 9 10 11 11 12 12 11 11 11 10 9 8 8 8 8 9 10 10 11 10 9 9 10 6 -1 -5 -2 4 7 8 10 10 10 11 24 32 25 17 12 10 8 8 8 10 11 12 12 11 11 10 9 nan
nan 7 8 8 9 8 8 8 8 8 8 8 8 9 10 11 12 12 12 11 11 10 11 11 11 10 10 9 8 8 7 8 9 9 10 10 10 10 9 9 4 -2 -3 1 5 7 8 9 9 10 17 31 32 22 13 11 10 10 10 10 10 11 11 11 12 11 10 9 nan
nan 8 8 8 8 8 8 8 8 8 8 8 9 10 11 12 13 13 13 12 11 10 10 10 9 8 8 8 8 7 7 8 9 9 9 9 9 9 8 8 5 1 1 4 6 7 8 9 9 13 23 33 27 16 12 12 13 12 12 11 11 11 11 12 12 11 10 9 nan
nan 9 9 8 8 8 9 9 9 8 8 8 10 11 12 12 13 13 12 12 10 9 9 9 7 7 7 7 7 7 8 9 8 9 9 9 9 8 8 9 8 6 5 4 4 5 7 8 10 16 26 29 20 13 12 13 13 12 12 12 12 12 12 12 13 12 11 8 nan
nan 10 9 8 9 8 8 9 8 8 9 10 11 11 12 12 12 13 12 11 9 8 8 8 7 7 7 6 7 8 9 9 8 8 8 10 9 7 7 9 9 8 4 1 2 5 7 8 11 16 24 23 16 13 13 12 10 10 10 12 12 12 12 12 12 13 12 7 nan
nan 11 10 9 9 9 9 8 8 9 10 11 10 10 10 11 10 11 11 11 10 9 8 7 7 7 6 6 7 9 10 10 10 9 9 9 6 4 5 9 9 6 2 0 2 5 7 9 11 14 22 23 18 15 13 11 9 8 9 11 11 12 12 11 10 11 12 8 nan
nan 12 11 10 9 9 9 8 8 9 10 10 10 10 10 10 10 10 10 11 10 9 8 8 7 7 6 7 8 9 9 9 10 10 9 8 5 4 8 12 10 7 4 4 5 6 7 8 10 14 23 25 18 14 12 10 8 8 9 10 9 10 10 10 10 10 12 12 nan
nan nan nan nan nan nan nan nan nan nan nan nan nan nan nan nan nan nan nan nan nan nan nan nan nan nan nan nan nan nan nan nan nan nan nan nan nan nan nan nan nan nan nan nan nan nan nan nan nan nan nan nan nan nan nan nan nan nan nan nan nan nan nan nan nan nan nan nan nan
CAPE
nan nan nan nan nan nan nan nan nan nan nan nan nan nan nan nan nan nan nan nan nan nan nan nan nan nan nan nan nan nan nan nan nan nan nan nan nan nan nan nan nan nan nan nan nan nan nan nan nan nan nan nan nan nan nan nan nan nan nan nan nan nan nan nan nan nan nan nan nan
nan nan nan nan nan nan nan nan nan nan nan nan nan nan nan nan nan nan nan nan nan nan nan nan nan nan nan nan nan nan nan nan nan nan nan nan nan nan nan nan nan nan nan nan nan nan nan nan nan nan nan nan nan nan nan nan nan nan nan nan nan nan nan nan nan nan nan nan nan
nan nan nan nan nan nan nan nan nan nan nan nan nan nan nan nan nan nan nan nan nan nan nan nan nan nan nan nan nan nan nan nan nan nan nan nan nan nan nan nan nan nan nan nan nan nan nan nan nan nan nan nan nan nan nan nan nan nan nan nan nan nan nan nan nan nan nan nan nan
nan nan nan nan nan nan nan nan nan nan nan nan nan nan nan nan nan nan nan nan nan nan nan nan nan nan nan nan nan nan nan nan nan nan nan nan nan nan nan nan nan nan nan nan nan nan nan nan nan nan nan nan nan nan nan nan nan nan nan nan nan nan nan nan nan nan nan nan nan
nan nan nan nan nan nan nan nan nan nan nan nan nan nan nan nan nan nan nan nan nan nan nan nan nan nan nan nan nan nan nan nan nan nan nan nan nan nan nan nan nan nan nan nan nan nan nan nan nan nan nan nan nan nan nan nan nan nan nan nan nan nan nan nan nan nan nan nan nan
nan nan nan nan nan nan nan nan nan nan nan nan nan nan nan nan nan nan nan nan nan nan nan nan nan nan nan nan nan nan nan nan nan nan nan nan nan nan nan nan nan nan nan nan nan nan nan nan nan nan nan nan nan nan nan nan nan nan nan nan nan nan nan nan nan nan nan nan nan
nan nan nan nan nan nan nan nan nan nan nan nan nan nan nan nan nan nan nan nan nan nan nan nan nan nan nan nan nan nan nan nan nan nan nan nan nan nan nan nan nan nan nan nan nan nan nan nan nan nan nan nan nan nan nan nan nan nan nan nan nan nan nan nan nan nan nan nan nan
nan nan nan nan nan nan nan nan nan nan nan nan nan nan nan nan nan nan nan nan nan nan nan nan nan nan nan nan nan nan nan nan nan nan nan nan nan nan nan nan nan nan nan nan nan nan nan nan nan nan nan nan nan nan nan nan nan nan nan nan nan nan nan nan nan nan nan nan nan
nan nan nan nan nan nan nan nan nan nan nan nan nan nan nan nan nan nan nan nan nan nan nan nan nan nan nan nan nan nan nan nan nan nan nan nan nan nan nan nan nan nan nan nan nan nan nan nan nan nan nan nan nan nan nan nan nan nan nan nan nan nan nan nan nan nan nan nan nan
nan nan nan nan nan nan nan nan nan nan nan nan nan nan nan nan nan nan nan nan nan nan nan nan nan nan nan nan nan nan nan nan nan nan nan nan nan nan nan nan nan nan nan nan nan nan nan nan nan nan nan nan nan nan nan nan nan nan nan nan nan nan nan nan nan nan nan nan nan
nan nan nan nan nan nan nan nan nan nan nan nan nan nan nan nan nan nan nan nan nan nan nan nan nan nan nan nan nan nan nan nan nan nan nan nan nan nan nan nan nan nan nan nan nan nan nan nan nan nan nan nan nan nan nan nan nan nan nan nan nan nan nan nan nan nan nan nan nan
nan nan nan nan nan nan nan nan nan nan nan nan nan nan nan nan nan nan nan nan nan nan nan nan nan nan nan nan nan nan nan nan nan nan nan nan nan nan nan nan nan nan nan nan nan nan nan nan nan nan nan nan nan nan nan nan nan nan nan nan nan nan nan nan nan nan nan nan nan
nan nan nan nan nan nan nan nan nan nan nan nan nan nan nan nan nan nan nan nan nan nan nan nan nan nan nan nan nan nan nan nan nan nan nan nan nan nan nan nan nan nan nan nan nan nan nan nan nan nan nan nan nan nan nan nan nan nan nan nan nan nan nan nan nan nan nan nan nan
nan nan nan nan nan nan nan nan nan nan nan nan nan nan nan nan nan nan nan nan nan nan nan nan nan nan nan nan nan nan nan nan nan nan nan nan nan nan nan nan nan nan nan nan nan nan nan nan nan nan nan nan nan nan nan nan nan nan nan nan nan nan nan nan nan nan nan nan nan
nan nan nan nan nan nan nan nan nan nan nan nan nan nan nan nan nan nan nan nan nan nan nan nan nan nan nan nan nan nan nan nan nan nan nan nan nan nan nan nan nan nan nan nan nan nan nan nan nan nan nan nan nan nan nan nan nan nan nan nan nan nan nan nan nan nan nan nan nan
nan nan nan nan nan nan nan nan nan nan nan nan nan nan nan nan nan nan nan nan nan nan nan nan nan nan nan nan nan nan nan nan nan nan nan nan nan nan nan nan nan nan nan nan nan nan nan nan nan nan nan nan nan nan nan nan nan nan nan nan nan nan nan nan nan nan nan nan nan
nan nan nan nan nan nan nan nan nan nan nan nan nan nan nan nan nan nan nan nan nan nan nan nan nan nan nan nan nan nan nan nan nan nan nan nan nan nan nan nan nan nan nan nan nan nan nan nan nan nan nan nan nan nan nan nan nan nan nan nan nan nan nan nan nan nan nan nan nan
nan nan nan nan nan nan nan nan nan nan nan nan nan nan nan nan nan nan nan nan nan nan nan nan nan nan nan nan nan nan nan nan nan nan nan nan nan nan nan nan nan nan nan nan nan nan nan nan nan nan nan nan nan nan nan nan nan nan nan nan nan nan nan nan nan nan nan nan nan
nan nan nan nan nan nan nan nan nan nan nan nan nan nan nan nan nan nan nan nan nan nan nan nan nan nan nan nan nan nan nan nan nan nan nan nan nan nan nan nan nan nan nan nan nan nan nan nan nan nan nan nan nan nan nan nan nan nan nan nan nan nan nan nan nan nan nan nan nan
nan nan nan nan nan nan nan nan nan nan nan nan nan nan nan nan nan nan nan nan nan nan nan nan nan nan nan nan nan nan nan nan nan nan nan nan nan nan nan nan nan nan nan nan nan nan nan nan nan nan nan nan nan nan nan nan nan nan nan nan nan nan nan nan nan nan nan nan nan
nan nan nan nan nan nan nan nan nan nan nan nan nan nan nan nan nan nan nan nan nan nan nan nan nan nan nan nan nan nan nan nan nan nan nan nan nan nan nan nan nan nan nan nan nan nan nan nan nan nan nan nan nan nan nan nan nan nan nan nan nan nan nan nan nan nan nan nan nan
nan nan nan nan nan nan nan nan nan nan nan nan nan nan nan nan nan nan nan nan nan nan nan nan nan nan nan nan nan nan nan nan nan nan nan nan nan nan nan nan nan nan nan nan nan nan nan nan nan nan nan nan nan nan nan nan nan nan nan nan nan nan nan nan nan nan nan nan nan
nan nan nan nan nan nan nan nan nan nan nan nan nan nan nan nan nan nan nan nan nan nan nan nan nan nan nan nan nan nan nan nan nan nan nan nan nan nan nan nan nan nan nan nan nan nan nan nan nan nan nan nan nan nan nan nan nan nan nan nan nan nan nan nan nan nan nan nan nan
nan nan nan nan nan nan nan nan nan nan nan nan nan nan nan nan nan nan nan nan nan nan nan nan nan nan nan nan nan nan nan nan nan nan nan nan nan nan nan nan nan nan nan nan nan nan nan nan nan nan nan nan nan nan nan nan nan nan nan nan nan nan nan nan nan nan nan nan nan
nan nan nan nan nan nan nan nan nan nan nan nan nan nan nan nan nan nan nan nan nan nan nan nan nan nan nan nan nan nan nan nan nan nan nan nan nan nan nan nan nan nan nan nan nan nan 2 3 nan nan nan nan nan nan nan nan nan nan nan nan nan nan nan nan nan nan nan nan nan
nan nan nan nan nan nan nan nan nan nan nan nan nan nan nan nan nan nan nan nan nan nan nan nan nan nan nan nan nan nan nan nan nan nan nan nan nan nan nan nan nan nan nan nan nan nan 1 4 7 7 nan nan nan nan nan nan nan nan nan nan nan nan nan nan nan nan nan nan nan
nan nan nan nan nan nan nan nan nan nan nan nan nan nan nan nan nan nan nan nan nan nan nan nan nan nan nan nan nan nan nan nan nan nan nan nan nan nan nan nan nan nan nan nan nan nan 3 4 6 6 5 nan nan nan nan nan nan nan nan nan nan nan nan nan nan nan nan nan 0
nan nan nan nan nan nan nan nan nan nan nan nan nan nan nan nan nan nan nan nan nan nan nan nan nan nan nan nan nan nan nan nan nan nan nan nan nan nan nan nan nan nan nan nan 0 0 2 3 6 6 8 0 nan nan nan nan nan nan nan nan nan nan nan nan nan nan nan nan nan
nan nan nan nan nan nan nan nan nan nan nan nan nan nan nan nan nan nan nan nan nan nan nan nan nan nan nan nan nan nan nan nan nan nan nan nan nan nan nan nan nan nan nan nan 0 0 1 3 6 6 10 10 nan nan nan nan nan nan nan nan nan nan nan nan nan nan nan nan nan
nan nan nan nan nan nan nan nan nan nan nan nan nan nan nan nan nan nan nan nan nan nan nan nan nan nan nan nan nan nan nan nan nan nan nan nan nan nan nan nan nan nan nan nan 0 0 2 4 7 7 12 14 1 nan nan nan nan nan nan nan nan nan nan nan nan nan nan nan nan
nan nan nan nan nan nan nan nan nan nan nan nan nan nan nan nan nan nan nan nan nan nan nan nan nan nan nan nan nan nan nan nan nan nan nan nan nan nan nan nan nan nan nan nan 0 0 2 4 8 8 13 16 4 nan nan nan nan nan nan nan nan nan nan nan nan nan nan nan nan
nan nan nan nan nan nan nan nan nan nan nan nan nan nan nan nan nan nan nan nan nan nan nan nan nan nan nan nan nan nan nan nan nan nan nan nan nan nan nan nan nan nan nan nan 0 0 2 4 8 8 13 17 6 nan nan nan nan nan nan nan nan nan nan nan nan nan nan nan nan
nan nan nan nan nan nan nan nan nan nan nan nan nan nan nan nan nan nan nan nan nan nan nan nan nan nan nan nan nan nan nan nan nan nan nan nan nan nan nan nan nan nan nan nan 1 1 2 5 8 8 13 18 4 nan nan nan nan nan nan nan nan nan nan nan nan nan nan nan nan
nan nan nan nan nan nan nan nan nan nan nan nan nan nan nan nan nan nan nan nan nan nan nan nan nan nan nan nan nan nan nan nan nan nan nan nan nan nan nan nan nan nan nan nan 0 0 2 4 8 8 13 17 1 nan nan nan nan nan nan nan nan nan nan nan nan nan nan nan nan
nan nan nan nan nan nan nan nan nan nan nan nan nan nan nan nan nan nan nan nan nan nan nan nan nan nan nan nan nan nan nan nan nan nan nan nan nan nan nan nan nan nan nan nan 0 0 1 4 8 8 12 13 nan nan nan nan nan nan nan nan nan nan nan 0 nan nan nan nan nan
nan nan nan nan nan nan nan nan nan nan nan nan nan nan nan nan nan nan nan nan nan nan nan nan nan nan nan nan nan nan nan nan nan nan nan nan nan nan nan nan nan nan nan nan 0 0 1 4 8 8 12 4 nan nan nan nan nan nan nan nan nan nan nan nan nan nan nan nan nan
nan nan nan nan nan nan nan nan nan nan nan nan nan nan nan nan nan nan nan nan nan nan nan nan nan nan nan nan nan nan nan nan nan nan nan nan nan nan nan nan nan nan nan nan 0 0 1 3 7 7 10 nan nan nan nan nan nan nan nan nan nan nan nan nan nan nan nan nan nan
nan nan nan nan nan nan nan nan nan nan nan nan nan nan nan nan nan nan nan nan nan nan nan nan nan nan nan nan nan nan nan nan nan nan nan nan nan nan nan nan nan nan nan nan nan nan 1 3 7 7 8 nan nan nan nan nan nan nan nan nan nan nan nan nan nan nan nan nan nan
nan nan nan nan nan nan nan nan nan nan nan nan nan nan nan nan nan nan nan nan nan nan nan nan nan nan nan nan nan nan nan nan nan nan nan nan nan nan nan nan nan nan nan nan nan nan 0 3 8 8 11 nan nan nan nan nan nan nan nan nan nan nan nan nan nan nan nan nan 22
nan nan nan nan nan nan nan nan nan nan nan nan nan nan nan nan nan nan nan nan nan nan nan nan nan nan nan nan nan nan nan nan nan nan nan nan nan nan nan nan nan nan nan nan nan nan nan 3 9 9 14 0 nan nan nan nan nan 0 0 nan nan nan nan nan nan nan nan nan 34
nan nan nan nan nan nan nan nan nan nan nan nan nan nan nan nan nan nan nan nan nan nan nan nan nan nan nan nan nan nan nan nan nan nan nan nan nan nan nan nan nan nan nan nan nan nan nan 5 12 12 19 nan nan nan nan nan 0 1 1 nan nan nan nan nan 0 0 nan nan 2